Time,TemperatureF,DewpointF,PressureIn,WindDirection,WindDirectionDegrees,WindSpeedMPH,WindSpeedGustMPH,Humidity,HourlyPrecipIn,Conditions,Clouds,dailyrainin,SoftwareType,DateUTC
2013-03-31 00:09:00,43.7,40.0,30.02,SSE,166,0.0,0.0,85,0.00,,,0.00,weatherlink.com 1.10,2013-03-31 07:09:00,
2013-03-31 00:24:00,43.2,39.0,30.02,SSE,165,0.0,0.0,86,0.00,,,0.00,weatherlink.com 1.10,2013-03-31 07:24:00,
2013-03-31 00:39:00,42.8,39.0,30.02,SSE,166,0.0,0.0,86,0.00,,,0.00,weatherlink.com 1.10,2013-03-31 07:39:00,
2013-03-31 00:54:00,42.3,39.0,30.02,SSE,165,0.0,0.0,87,0.00,,,0.00,weatherlink.com 1.10,2013-03-31 07:54:00,
2013-03-31 01:09:00,41.6,38.0,30.02,SSE,166,0.0,0.0,87,0.00,,,0.00,weatherlink.com 1.10,2013-03-31 08:09:00,
2013-03-31 01:24:00,41.2,38.0,30.02,SSE,166,0.0,0.0,89,0.00,,,0.00,weatherlink.com 1.10,2013-03-31 08:24:00,
2013-03-31 01:39:00,40.5,37.0,30.02,SSE,166,0.0,0.0,88,0.00,,,0.00,weatherlink.com 1.10,2013-03-31 08:39:00,
2013-03-31 01:54:00,39.5,36.0,30.02,SSE,166,0.0,0.0,88,0.00,,,0.00,weatherlink.com 1.10,2013-03-31 08:54:00,
2013-03-31 02:09:00,38.7,36.0,30.01,SSE,166,0.0,0.0,89,0.00,,,0.00,weatherlink.com 1.10,2013-03-31 09:09:00,
2013-03-31 02:24:00,38.2,36.0,30.01,SSE,166,0.0,0.0,91,0.00,,,0.00,weatherlink.com 1.10,2013-03-31 09:24:00,
2013-03-31 02:39:00,37.4,35.0,30.01,SSE,166,0.0,0.0,90,0.00,,,0.00,weatherlink.com 1.10,2013-03-31 09:39:00,
2013-03-31 02:55:00,36.7,34.0,30.00,SSE,166,0.0,0.0,90,0.00,,,0.00,weatherlink.com 1.10,2013-03-31 09:55:00,
2013-03-31 03:10:00,35.9,34.0,30.00,SSE,166,0.0,0.0,91,0.00,,,0.00,weatherlink.com 1.10,2013-03-31 10:10:00,
2013-03-31 03:25:00,34.9,33.0,30.00,SSE,166,0.0,0.0,91,0.00,,,0.00,weatherlink.com 1.10,2013-03-31 10:25:00,
2013-03-31 03:40:00,34.5,32.0,30.00,SSE,166,0.0,0.0,91,0.00,,,0.00,weatherlink.com 1.10,2013-03-31 10:40:00,
2013-03-31 03:55:00,33.6,32.0,29.99,SSE,166,0.0,0.0,92,0.00,,,0.00,weatherlink.com 1.10,2013-03-31 10:55:00,
2013-03-31 04:10:00,33.1,31.0,29.99,SSE,166,0.0,0.0,91,0.00,,,0.00,weatherlink.com 1.10,2013-03-31 11:10:00,
2013-03-31 04:25:00,32.9,31.0,29.98,SSE,166,0.0,0.0,93,0.00,,,0.00,weatherlink.com 1.10,2013-03-31 11:25:00,
2013-03-31 04:40:00,32.5,31.0,29.98,SSE,166,0.0,0.0,92,0.00,,,0.00,weatherlink.com 1.10,2013-03-31 11:40:00,
2013-03-31 04:55:00,32.2,30.0,29.98,SSE,166,0.0,0.0,92,0.00,,,0.00,weatherlink.com 1.10,2013-03-31 11:55:00,
2013-03-31 05:10:00,32.0,30.0,29.98,SSE,166,0.0,0.0,93,0.00,,,0.00,weatherlink.com 1.10,2013-03-31 12:10:00,
2013-03-31 05:25:00,31.7,30.0,29.98,SSE,165,0.0,0.0,93,0.00,,,0.00,weatherlink.com 1.10,2013-03-31 12:25:00,
2013-03-31 05:40:00,31.3,30.0,29.98,SSE,166,0.0,0.0,93,0.00,,,0.00,weatherlink.com 1.10,2013-03-31 12:40:00,
2013-03-31 05:55:00,30.9,29.0,29.98,SSE,166,0.0,0.0,93,0.00,,,0.00,weatherlink.com 1.10,2013-03-31 12:55:00,
2013-03-31 06:10:00,30.8,29.0,29.98,SSE,166,0.0,0.0,94,0.00,,,0.00,weatherlink.com 1.10,2013-03-31 13:10:00,
2013-03-31 06:25:00,30.6,29.0,29.98,SSE,166,0.0,0.0,93,0.00,,,0.00,weatherlink.com 1.10,2013-03-31 13:25:00,
2013-03-31 06:40:00,30.5,29.0,29.98,SSE,166,0.0,0.0,94,0.00,,,0.00,weatherlink.com 1.10,2013-03-31 13:40:00,
2013-03-31 06:55:00,30.4,29.0,29.98,SSE,165,0.0,0.0,94,0.00,,,0.00,weatherlink.com 1.10,2013-03-31 13:55:00,
2013-03-31 07:10:00,31.0,30.0,29.98,SSE,166,0.0,0.0,95,0.00,,,0.00,weatherlink.com 1.10,2013-03-31 14:10:00,
2013-03-31 07:25:00,30.8,29.0,29.98,SSE,166,0.0,0.0,93,0.00,,,0.00,weatherlink.com 1.10,2013-03-31 14:25:00,
2013-03-31 07:40:00,31.2,30.0,29.98,SSE,166,0.0,0.0,94,0.00,,,0.00,weatherlink.com 1.10,2013-03-31 14:40:00,
2013-03-31 07:55:00,32.1,31.0,29.97,SSE,166,0.0,0.0,95,0.00,,,0.00,weatherlink.com 1.10,2013-03-31 14:55:00,
2013-03-31 08:10:00,35.5,35.0,29.97,SSE,166,0.0,0.0,96,0.00,,,0.00,weatherlink.com 1.10,2013-03-31 15:10:00,
2013-03-31 08:25:00,42.0,38.0,29.97,SSE,166,0.0,0.0,87,0.00,,,0.00,weatherlink.com 1.10,2013-03-31 15:25:00,
2013-03-31 08:40:00,46.4,39.0,29.97,SSE,163,0.0,2.0,74,0.00,,,0.00,weatherlink.com 1.10,2013-03-31 15:40:00,
2013-03-31 08:55:00,49.1,38.0,29.97,SSE,165,0.0,2.0,66,0.00,,,0.00,weatherlink.com 1.10,2013-03-31 15:55:00,
2013-03-31 09:10:00,50.4,38.0,29.97,SSE,165,0.0,3.0,63,0.00,,,0.00,weatherlink.com 1.10,2013-03-31 16:10:00,
2013-03-31 09:25:00,51.5,38.0,29.97,SSE,155,0.0,4.0,60,0.00,,,0.00,weatherlink.com 1.10,2013-03-31 16:25:00,
2013-03-31 09:40:00,53.2,39.0,29.97,SSE,153,1.0,3.0,58,0.00,,,0.00,weatherlink.com 1.10,2013-03-31 16:40:00,
2013-03-31 09:56:00,54.0,38.0,29.97,South,176,1.0,3.0,56,0.00,,,0.00,weatherlink.com 1.10,2013-03-31 16:56:00,
2013-03-31 10:26:00,55.8,39.0,29.97,SSW,212,1.0,4.0,54,0.00,,,0.00,weatherlink.com 1.10,2013-03-31 17:26:00,
2013-03-31 11:41:00,60.0,39.0,29.96,SSE,149,0.0,5.0,46,0.00,,,0.00,weatherlink.com 1.10,2013-03-31 18:41:00,
2013-03-31 11:56:00,60.3,39.0,29.96,SW,224,3.0,6.0,45,0.00,,,0.00,weatherlink.com 1.10,2013-03-31 18:56:00,
2013-03-31 12:11:00,61.0,39.0,29.95,SSE,162,1.0,5.0,45,0.00,,,0.00,weatherlink.com 1.10,2013-03-31 19:11:00,
2013-03-31 12:41:00,62.2,39.0,29.94,South,173,1.0,4.0,42,0.00,,,0.00,weatherlink.com 1.10,2013-03-31 19:41:00,
2013-03-31 12:56:00,60.7,39.0,29.94,SW,218,1.0,3.0,45,0.00,,,0.00,weatherlink.com 1.10,2013-03-31 19:56:00,
2013-03-31 13:11:00,61.0,39.0,29.94,SSE,152,0.0,5.0,45,0.00,,,0.00,weatherlink.com 1.10,2013-03-31 20:11:00,
2013-03-31 13:26:00,61.2,40.0,29.94,South,171,0.0,4.0,46,0.00,,,0.00,weatherlink.com 1.10,2013-03-31 20:26:00,
2013-03-31 13:41:00,61.7,39.0,29.93,SSW,195,1.0,5.0,44,0.00,,,0.00,weatherlink.com 1.10,2013-03-31 20:41:00,
2013-03-31 14:11:00,63.1,41.0,29.92,SSW,211,2.0,4.0,44,0.00,,,0.00,weatherlink.com 1.10,2013-03-31 21:11:00,
2013-03-31 14:26:00,63.3,39.0,29.92,WSW,252,3.0,5.0,41,0.00,,,0.00,weatherlink.com 1.10,2013-03-31 21:26:00,
2013-03-31 14:41:00,64.2,39.0,29.91,South,171,1.0,6.0,40,0.00,,,0.00,weatherlink.com 1.10,2013-03-31 21:41:00,
2013-03-31 14:56:00,63.0,38.0,29.90,South,183,1.0,3.0,40,0.00,,,0.00,weatherlink.com 1.10,2013-03-31 21:56:00,
2013-03-31 15:11:00,64.2,39.0,29.90,WSW,242,4.0,4.0,40,0.00,,,0.00,weatherlink.com 1.10,2013-03-31 22:11:00,
2013-03-31 15:27:00,63.8,39.0,29.89,SE,129,0.0,3.0,41,0.00,,,0.00,weatherlink.com 1.10,2013-03-31 22:27:00,
2013-03-31 15:41:00,63.3,38.0,29.89,SE,146,0.0,6.0,40,0.00,,,0.00,weatherlink.com 1.10,2013-03-31 22:41:00,
2013-03-31 15:56:00,63.4,39.0,29.89,South,190,2.0,4.0,40,0.00,,,0.00,weatherlink.com 1.10,2013-03-31 22:56:00,
2013-03-31 16:11:00,63.0,39.0,29.89,SSW,192,1.0,2.0,41,0.00,,,0.00,weatherlink.com 1.10,2013-03-31 23:11:00,
2013-03-31 16:26:00,62.2,38.0,29.90,South,181,0.0,3.0,41,0.00,,,0.00,weatherlink.com 1.10,2013-03-31 23:26:00,
2013-03-31 16:41:00,61.7,38.0,29.90,South,170,0.0,3.0,42,0.00,,,0.00,weatherlink.com 1.10,2013-03-31 23:41:00,
2013-03-31 16:56:00,58.7,42.0,29.90,East,87,1.0,6.0,54,0.00,,,0.00,weatherlink.com 1.10,2013-03-31 23:56:00,
2013-03-31 17:12:00,57.5,44.0,29.91,NE,44,2.0,6.0,61,0.00,,,0.00,weatherlink.com 1.10,2013-04-01 00:12:00,
2013-03-31 17:26:00,56.7,44.0,29.91,SE,124,1.0,5.0,62,0.00,,,0.00,weatherlink.com 1.10,2013-04-01 00:26:00,
2013-03-31 17:42:00,56.3,45.0,29.90,East,82,2.0,5.0,66,0.00,,,0.00,weatherlink.com 1.10,2013-04-01 00:42:00,
2013-03-31 17:56:00,55.3,45.0,29.90,ESE,108,1.0,3.0,69,0.00,,,0.00,weatherlink.com 1.10,2013-04-01 00:56:00,
2013-03-31 18:12:00,54.8,45.0,29.90,South,180,0.0,4.0,70,0.00,,,0.00,weatherlink.com 1.10,2013-04-01 01:12:00,
2013-03-31 18:27:00,54.5,45.0,29.90,South,172,1.0,3.0,71,0.00,,,0.00,weatherlink.com 1.10,2013-04-01 01:27:00,
2013-03-31 18:42:00,54.1,45.0,29.89,SE,136,0.0,2.0,72,0.00,,,0.00,weatherlink.com 1.10,2013-04-01 01:42:00,
2013-03-31 19:12:00,53.3,45.0,29.89,SE,134,0.0,1.0,74,0.00,,,0.00,weatherlink.com 1.10,2013-04-01 02:12:00,
2013-03-31 19:27:00,52.8,45.0,29.89,SE,134,0.0,0.0,76,0.00,,,0.00,weatherlink.com 1.10,2013-04-01 02:27:00,
2013-03-31 19:42:00,51.8,45.0,29.89,SE,134,0.0,0.0,77,0.00,,,0.00,weatherlink.com 1.10,2013-04-01 02:42:00,
2013-03-31 19:57:00,50.6,44.0,29.89,SE,134,0.0,0.0,79,0.00,,,0.00,weatherlink.com 1.10,2013-04-01 02:57:00,
2013-03-31 20:12:00,49.6,44.0,29.90,SE,134,0.0,0.0,82,0.00,,,0.00,weatherlink.com 1.10,2013-04-01 03:12:00,
2013-03-31 20:27:00,48.8,44.0,29.90,SE,134,0.0,0.0,83,0.00,,,0.00,weatherlink.com 1.10,2013-04-01 03:27:00,
2013-03-31 20:42:00,48.2,44.0,29.90,SE,134,0.0,0.0,84,0.00,,,0.00,weatherlink.com 1.10,2013-04-01 03:42:00,
2013-03-31 20:57:00,47.9,43.0,29.91,SE,145,0.0,0.0,84,0.00,,,0.00,weatherlink.com 1.10,2013-04-01 03:57:00,
2013-03-31 21:12:00,47.6,43.0,29.91,SE,145,0.0,0.0,84,0.00,,,0.00,weatherlink.com 1.10,2013-04-01 04:12:00,
2013-03-31 21:27:00,47.3,43.0,29.91,SE,145,0.0,0.0,85,0.00,,,0.00,weatherlink.com 1.10,2013-04-01 04:27:00,
2013-03-31 21:42:00,47.1,43.0,29.91,SE,145,0.0,0.0,85,0.00,,,0.00,weatherlink.com 1.10,2013-04-01 04:42:00,
2013-03-31 21:57:00,46.9,43.0,29.91,SE,145,0.0,0.0,86,0.00,,,0.00,weatherlink.com 1.10,2013-04-01 04:57:00,
2013-03-31 22:12:00,47.1,43.0,29.91,South,179,0.0,1.0,85,0.00,,,0.00,weatherlink.com 1.10,2013-04-01 05:12:00,
2013-03-31 22:27:00,49.3,43.0,29.92,SSE,160,0.0,3.0,78,0.00,,,0.00,weatherlink.com 1.10,2013-04-01 05:27:00,
2013-03-31 22:42:00,49.8,43.0,29.91,South,182,0.0,2.0,76,0.00,,,0.00,weatherlink.com 1.10,2013-04-01 05:42:00,
2013-03-31 22:57:00,49.6,42.0,29.91,South,176,0.0,2.0,75,0.00,,,0.00,weatherlink.com 1.10,2013-04-01 05:57:00,
2013-03-31 23:12:00,49.7,42.0,29.91,South,172,1.0,2.0,74,0.00,,,0.00,weatherlink.com 1.10,2013-04-01 06:12:00,
2013-03-31 23:27:00,49.7,41.0,29.91,SSE,159,1.0,4.0,73,0.00,,,0.00,weatherlink.com 1.10,2013-04-01 06:27:00,
2013-03-31 23:42:00,49.4,41.0,29.91,South,184,0.0,2.0,72,0.00,,,0.00,weatherlink.com 1.10,2013-04-01 06:42:00,